Weather History for Guymon, OK

Change the Weather History Date:

Monday, March 11, 2013

  Actual Average Record
Temperature  
Mean Temperature 45 °F 45 °F  
Max Temperature 66 °F 60 °F 84 °F (2011)
Min Temperature 23 °F 30 °F 16 °F (2009)
Degree Days  
Heating Degree Days 20 20  
Month to date heating degree days 201 238  
Since 1 July heating degree days 3434 3705  
Cooling Degree Days 0 0  
Month to date cooling degree days 0 0  
Year to date cooling degree days 0 0  
Moisture  
Dew Point 21 °F    
Average Humidity 47    
Maximum Humidity 75    
Minimum Humidity 18    
Precipitation  
Precipitation 0.00 in 0.05 in 0.02 in (2007)
Month to date precipitation 0.03 0.46  
Year to date precipitation 1.59 1.33  
Snow  
Snow 0.00 in - - ()
Month to date snowfall T  
Since 1 July snowfall 19.5  
Snow Depth 0.00 in    
Sea Level Pressure  
Sea Level Pressure 29.97 in    
Wind  
Wind Speed 8 mph (NW)    
Max Wind Speed 17 mph    
Max Gust Speed 23 mph    
Visibility 10 miles    
Events      
T = Trace of Precipitation, MM = Missing Value Source: NWS Daily Summary

Daily Weather History Graph

Daily Weather History Graph

Search for Another Location

Airport:

Trip Planner

Search our weather history database for the weather conditions in past years. The results will help you decide how hot, cold, wet, or windy it might be!

Date:

Astronomy

Mar. 11, 2013 Rise Set
Actual Time 8:02 AM CDT 7:50 PM CDT
Civil Twilight 7:36 AM CDT 8:15 PM CDT
Nautical Twilight 7:06 AM CDT 8:45 PM CDT
Astronomical Twilight 6:36 AM CDT 9:16 PM CDT
Moon 7:37 AM CDT (3/11) 8:02 PM CDT (3/11)
Length of Visible Light 12h 39m
Length of Day
11h 47m
Waning Crescent, 0% of the Moon is Illuminated
Mar 11
Waning Crescent
Mar 11
New
Mar 19
First Quarter
Mar 27
Full
Apr 2
Last Quarter

Hourly Weather History & Observations

Time (CDT) Temp. Windchill Dew Point Humidity Pressure Visibility Wind Dir Wind Speed Gust Speed Precip Events Conditions
12:53 AM 25.0 °F 15.5 °F 17.1 °F 72% 30.13 in 10.0 mi West 9.2 mph - N/A   Clear
2:53 AM 25.0 °F 15.5 °F 17.1 °F 72% 30.11 in 10.0 mi West 9.2 mph - N/A   Clear
3:53 AM 25.0 °F 14.8 °F 17.1 °F 72% 30.08 in 10.0 mi West 10.4 mph - N/A   Clear
4:53 AM 25.0 °F 14.2 °F 17.1 °F 72% 30.05 in 10.0 mi West 11.5 mph - N/A   Clear
5:53 AM 24.1 °F 15.2 °F 18.0 °F 77% 30.02 in 10.0 mi WSW 8.1 mph - N/A   Clear
6:53 AM 27.0 °F 18.7 °F 19.0 °F 72% 30.02 in 10.0 mi West 8.1 mph - N/A   Clear
7:53 AM 24.1 °F 17.0 °F 18.0 °F 77% 30.02 in 10.0 mi WSW 5.8 mph - N/A   Clear
8:53 AM 30.9 °F 27.5 °F 21.9 °F 69% 30.01 in 10.0 mi West 3.5 mph - N/A   Clear
9:53 AM 39.0 °F 34.8 °F 24.1 °F 55% 30.02 in 10.0 mi WSW 5.8 mph - N/A   Clear
10:53 AM 48.9 °F - 26.1 °F 41% 29.99 in 10.0 mi NW 6.9 mph - N/A   Clear
11:53 AM 55.9 °F - 21.9 °F 27% 29.98 in 10.0 mi NW 6.9 mph - N/A   Clear
12:53 PM 59.0 °F - 21.0 °F 23% 29.96 in 10.0 mi North 3.5 mph - N/A   Clear
1:53 PM 62.1 °F - 21.0 °F 21% 29.94 in 10.0 mi Variable 4.6 mph - N/A   Clear
2:53 PM 64.0 °F - 19.0 °F 18% 29.90 in 10.0 mi NNW 8.1 mph 16.1 mph N/A   Clear
3:53 PM 64.9 °F - 19.0 °F 17% 29.89 in 10.0 mi WNW 10.4 mph - N/A   Clear
4:53 PM 64.9 °F - 19.9 °F 18% 29.87 in 10.0 mi WNW 5.8 mph - N/A   Clear
5:53 PM 64.9 °F - 19.9 °F 18% 29.85 in 10.0 mi North 8.1 mph - N/A   Clear
6:53 PM 64.0 °F - 21.0 °F 19% 29.85 in 10.0 mi NE 6.9 mph - N/A   Clear
7:53 PM 57.0 °F - 21.9 °F 26% 29.88 in 10.0 mi NE 8.1 mph - N/A   Clear
8:53 PM 53.1 °F - 23.0 °F 31% 29.89 in 10.0 mi NE 6.9 mph - N/A   Clear
9:53 PM 48.9 °F - 24.1 °F 38% 29.91 in 10.0 mi NNE 3.5 mph - N/A   Partly Cloudy
10:53 PM 48.0 °F - 24.1 °F 39% 29.91 in 10.0 mi NE 13.8 mph - N/A   Clear
11:53 PM 46.9 °F - 26.1 °F 44% 29.93 in 10.0 mi NE 12.7 mph - N/A   Clear